This demonstration page uses our WeatherBlox Daily Observations layout. Learn more.

Left ArrowRight Arrow

39.01783, -85.05884

Hourly Observations for February 15, 2019

Temp ( °F °C ) Dew Point ( °F °C ) Humidity (%) Winds ( mph kmh ) Pressure ( in mb ) Visibility ( mi km ) Precip ( " mm )
12:52 am 00:52 Cloudy 52 11.1 33 0.6 49 49 SW 10 17 29.65 1004 10 16 0.00 0.00
1:52 am 01:52 Cloudy with Light Rain 52 11.1 36 2.2 55 55 SSW 12 19 29.64 1004 10 16 0.00 0.03
2:11 am 02:11 Cloudy with Light Rain 52 11.1 37 2.8 57 57 SW 13 20 29.66 1004 10 16 0.00 0.03
2:52 am 02:52 Cloudy with Light Rain 50 10 41 5 71 71 WSW 8 13 29.66 1004 8 13 0.00 0.03
3:52 am 03:52 Cloudy 50 10 43 6.1 77 77 WSW 12 19 29.65 1004 10 16 0.01 0.25
4:33 am 04:33 Mostly Cloudy 49 9.4 44 6.7 83 83 W 14 22 29.69 1006 10 16 0.00 0.00
4:52 am 04:52 Partly Cloudy 49 9.4 42 5.6 77 77 W 20 31 29.67 1005 10 16 0.00 0.00
5:29 am 05:29 Cloudy 46 7.8 39 3.9 77 77 WNW 23 37 29.73 1007 10 16 0.00 0.00
5:47 am 05:47 Mostly Cloudy 45 7 37 3 76 76 WNW 15 24 29.74 1007 10 16 0.00 0.00
5:52 am 05:52 Partly Cloudy 43 6.1 36 2.2 76 76 WNW 15 24 29.72 1006 10 16 0.00 0.00
6:48 am 06:48 Mostly Cloudy 37 3 34 1 87 87 NW 15 24 29.79 1009 8 13 0.00 0.00
6:52 am 06:52 Mostly Cloudy 38 3.3 33 0.6 83 83 NW 20 31 29.76 1008 8 13 0.00 0.00
7:52 am 07:52 Cloudy with Haze 35 1.7 29 -1.7 78 78 WNW 14 22 29.79 1009 5 8 0.00 0.00
8:17 am 08:17 Cloudy with Haze 35 1.7 29 -1.7 78 78 W 10 17 29.84 1010 6 10 0.00 0.00
8:52 am 08:52 Cloudy with Haze 35 1.7 28 -2.2 76 76 WNW 14 22 29.82 1010 6 10 0.00 0.00
9:52 am 09:52 Mostly Cloudy 36 2.2 28 -2.2 73 73 W 17 28 29.83 1010 7 11 0.00 0.00
10:20 am 10:20 Mostly Cloudy 37 2.8 28 -2.2 70 70 W 15 24 29.87 1011 7 11 0.00 0.00
10:52 am 10:52 Mostly Cloudy 39 3.9 27 -2.8 62 62 W 17 28 29.83 1010 8 13 0.00 0.00
11:52 am 11:52 Cloudy 40 4.4 25 -3.9 55 55 NW 16 26 29.85 1011 10 16 0.00 0.00
12:52 pm 12:52 Cloudy 38 3.3 22 -5.6 52 52 WNW 16 26 29.87 1011 10 16 0.00 0.00
1:52 pm 13:52 Cloudy 37 2.8 19 -7.2 48 48 W 14 22 29.88 1012 10 16 0.00 0.00
2:52 pm 14:52 Cloudy 35 1.7 16 -8.9 46 46 NW 17 28 29.90 1013 10 16 0.00 0.00
3:52 pm 15:52 Cloudy 34 1.1 18 -7.8 52 52 NW 13 20 29.91 1013 10 16 0.00 0.00
4:52 pm 16:52 Cloudy 33 0.6 18 -7.8 54 54 NW 8 13 29.90 1013 10 16 0.00 0.00
5:52 pm 17:52 Cloudy 32 0 17 -8.3 54 54 WNW 5 7 29.92 1013 10 16 0.00 0.00
6:52 pm 18:52 Cloudy 32 0 18 -7.8 56 56 W 6 9 29.93 1014 10 16 0.00 0.00
7:52 pm 19:52 Cloudy 32 0 18 -7.8 56 56 WNW 7 11 29.96 1015 10 16 0.00 0.00
8:52 pm 20:52 Cloudy 31 -0.6 19 -7.2 61 61 N 7 11 29.95 1014 10 16 0.00 0.00
9:52 pm 21:52 Cloudy 31 -0.6 17 -8.3 56 56 N 8 13 29.96 1015 10 16 0.00 0.00
10:52 pm 22:52 Cloudy 30 -1.1 17 -8.3 58 58 N 12 19 29.96 1015 10 16 0.00 0.00
11:52 pm 23:52 Cloudy 29 -1.7 17 -8.3 61 61 N 12 19 29.96 1015 10 16 0.00 0.00

Powered by AerisWeather